Weather History for Pitt Meadows, BC

Change the Weather History Date:

Monday, November 5, 2012

  Actual Average (CYXX) Record (CYXX)
Temperature  
Mean Temperature 50 °F -  
Max Temperature 57 °F 51 °F 59 °F (1997)
Min Temperature 42 °F 37 °F 23 °F (2003)
Degree Days  
Heating Degree Days 16    
Moisture  
Dew Point 46 °F    
Average Humidity 85    
Maximum Humidity 96    
Minimum Humidity 62    
Precipitation  
Precipitation 0.00 in - - ()
Sea Level Pressure  
Sea Level Pressure 30.34 in    
Wind  
Wind Speed 1 mph ()    
Max Wind Speed 5 mph    
Max Gust Speed -    
Averages and records for this station are not official NWS values.
T = Trace of Precipitation, MM = Missing Value Source: Averaged Metar Reports

Daily Weather History Graph

Daily Weather History Graph

Search for Another Location

Airport:

Trip Planner

Search our weather history database for the weather conditions in past years. The results will help you decide how hot, cold, wet, or windy it might be!

Date:

Astronomy

Nov. 05, 2012 Rise Set
Actual Time 7:05 AM PST 4:42 PM PST
Civil Twilight 6:32 AM PST 5:15 PM PST
Nautical Twilight 5:54 AM PST 5:53 PM PST
Astronomical Twilight 5:17 AM PST 6:30 PM PST
Moon 10:26 PM PST (11/5) 12:29 PM PST (11/5)
Length of Visible Light 10h 43m
Length of Day
9h 36m
Waning Gibbous, 62% of the Moon is Illuminated
Nov 5
Waning Gibbous
Nov 6
Last Quarter
Nov 13
New
Nov 20
First Quarter
Nov 28
Full

Hourly Weather History & Observations

Time (PST) Temp. Windchill Dew Point Humidity Pressure Visibility Wind Dir Wind Speed Gust Speed Precip Events Conditions
12:00 AM 53.6 °F - 51.3 °F 92% 30.27 in - South 1.2 mph - N/A   Unknown
1:00 AM 51.4 °F - 49.5 °F 93% 30.30 in - South 2.3 mph - N/A   Unknown
2:00 AM 50.7 °F - 48.2 °F 91% 30.31 in - South 2.3 mph - N/A   Unknown
3:00 AM 49.8 °F - 47.3 °F 91% 30.34 in - SSE 2.3 mph - N/A   Unknown
4:00 AM 48 °F - 45 °F 86% 30.35 in - East 1.2 mph - -  
4:00 AM 48.0 °F - 45.1 °F 90% 30.35 in - East 1.2 mph - N/A   Unknown
5:00 AM 47.1 °F - 45.0 °F 92% 30.37 in - SE 3.5 mph - N/A   Unknown
6:00 AM 45.9 °F - 44.4 °F 95% 30.38 in - Calm Calm - N/A   Unknown
7:00 AM 43.0 °F - 41.7 °F 95% 30.39 in - SE 1.2 mph - N/A   Unknown
8:00 AM 44.1 °F - 43.0 °F 96% 30.41 in - North 1.2 mph - N/A   Unknown
9:00 AM 46.6 °F - 45.5 °F 96% 30.40 in - SW 1.2 mph - N/A   Unknown
10:00 AM 51 °F - 47 °F 80% 30.40 in - Calm Calm - -  
10:00 AM 50.5 °F - 46.8 °F 87% 30.40 in - Calm Calm - N/A   Unknown
11:00 AM 52.9 °F - 46.8 °F 80% 30.40 in - ESE 1.2 mph - N/A   Unknown
12:00 PM 55.2 °F - 46.9 °F 74% 30.40 in - SSE 1.2 mph - N/A   Unknown
1:00 PM 55.8 °F - 43.2 °F 63% 30.38 in - SE 2.3 mph - N/A   Unknown
2:00 PM 55.9 °F - 44.6 °F 66% 30.37 in - Calm Calm - N/A   Unknown
3:00 PM 56.3 °F - 45.7 °F 68% 30.37 in - WSW 1.2 mph - N/A   Unknown
4:00 PM 54 °F - 45 °F 62% 30.36 in - SW 2.3 mph - -  
4:00 PM 53.8 °F - 44.6 °F 71% 30.36 in - SW 2.3 mph - N/A   Unknown
5:00 PM 52.0 °F - 45.3 °F 78% 30.35 in - North 1.2 mph - N/A   Unknown
6:00 PM 50.7 °F - 46.4 °F 85% 30.32 in - NE 4.6 mph - N/A   Unknown
7:00 PM 50.0 °F - 46.9 °F 89% 30.30 in - NW 2.3 mph - N/A   Unknown
8:00 PM 49.6 °F - 46.4 °F 89% 30.27 in - NE 3.5 mph - N/A   Unknown
9:00 PM 48.6 °F - 45.9 °F 90% 30.25 in - ESE 1.2 mph - N/A   Unknown
10:00 PM 48 °F - 46 °F 90% 30.23 in - West 1.2 mph - -  
10:00 PM 47.8 °F - 46.0 °F 93% 30.23 in - West 1.2 mph - N/A   Unknown
11:00 PM 46.4 °F 45.2 °F 44.8 °F 94% 30.22 in - WNW 3.5 mph - N/A   Unknown